Weather Roundup
Issued by NWS Chicago, IL

Home | Current Version | Previous Version | Text Only | Print | Product List | Glossary Off
Versions: 1 2 3 4 5 6 7 8 9 10 11 12 13 14 15 16 17 18 19 20 21 22 23 24 25 26 27 28 29 30 31 32 33 34 35 36 37 38 39 40 41 42 43 44 45 46 47 48 49 50

000
NZUS59 KLOT 250203
HRRLOT

CHICAGO AREA WEATHER ROUNDUP
NATIONAL WEATHER SERVICE CHICAGO/ROMEOVILLE IL
900 PM CDT MON APR 24 2017

NOTE: "FAIR" INDICATES FEW OR NO CLOUDS BELOW 12,000 FEET WITH NO
SIGNIFICANT WEATHER AND/OR OBSTRUCTIONS TO VISIBILITY.

* THESE STATIONS ARE NOT UNDER NWS QUALITY CONTROL. THEY ALSO MAY NOT
  REPORT WEATHER SUCH AS PRECIPITATION OR FOG.

ILZ005-006-012>014-019>023-250300-
NORTHEAST ILLINOIS

CITY           SKY/WX    TMP DP  RH WIND       PRES   REMARKS
OHARE          PTCLDY    58  32  37 E6        29.77R
MIDWAY         PTCLDY    59  37  44 E9        29.77F
AURORA         CLEAR     61  32  33 E13       29.75S
LANSING*       CLEAR     55  43  65 E3        29.77F
JOLIET*        CLEAR     61  36  39 E3        29.76S
WAUKEGAN       PTCLDY    49  35  58 E5        29.78R
DUPAGE AIRPORT CLEAR     60  32  34 E8        29.75S
WHEELING       PTCLDY    54  34  46 E5        29.79R
KANKAKEE*      CLEAR     59  37  44 E8        29.76F
MORRIS*        CLEAR     63  34  33 CALM      29.73S
LEWIS AIRPORT* CLEAR     58  38  48 E6        29.76S
NORTHERLY ISL    N/A     52  39  61 CALM        N/A
$$

WIZ051-052-058>065-066-070>072-250300-
SOUTHEAST WISCONSIN

CITY           SKY/WX    TMP DP  RH WIND       PRES   REMARKS
MILWAUKEE      MOCLDY    52  31  44 CALM      29.79S
KENOSHA*       CLEAR     45  33  63 E7        29.78S
RACINE*        CLEAR     50  33  52 SE5       29.80S
WAUKESHA       CLEAR     52  30  43 SE7       29.80R
WEST BEND      CLOUDY    50  30  46 CALM      29.80R
$$

INZ001>003-010>013-019-020-250300-
NORTHWEST INDIANA

CITY           SKY/WX    TMP DP  RH WIND       PRES   REMARKS
GARY*          MOCLDY    50  43  76 CALM      29.78F
MICHIGAN CITY* NOT AVBL
RENSSELAER*    NOT AVBL
VALPARAISO     CLOUDY    60  38  43 E9        29.80S
$$

LMZ740>746-250300-
SOUTHERN LAKE MICHIGAN

STATION/POSITION TIME  SKY/WX   TEMP WIND        PRES    VSBY
                                AIR  DIR/SP/G
                 (UTC)          (F)  (DEG/KT/KT) (MB)    (MI)
HARRISON CRIB    0130            54  100/ 19/ 20   N/A
BURNHAM HARBOR   0200            52   CALM  /  8   N/A
CALUMET HARBOR   0130            54   80/  4/  6 1007.8F
BURNS HARBOR     0140            67  110/ 11/ 16 1009.1S
MICHIGAN CITY    0140            66   90/  8/ 10   N/A
$$

ABBREVIATIONS USED IN REMARKS
   TC - TEMPERATURE IN CELSIUS
  WCI - WIND CHILL INDEX
   HX - HEAT INDEX
  VSB - VISIBILITY
$$




USA.gov is the U.S. government's official web portal to all federal, state and local government web resources and services.